• In United Kingdom
  • List of Countries
  • For 7 days
  • Water Temperature
  • Satellite Maps
  • Weather Map
  • Weather Widgets
  • user-avatar
    Login

    Hourly Weather Solden

    Today, 14 December, Thursday

    Time Temperature Precipitation Wind Pressure Humidity
    00:00 -14°C° 0 mm 3 mps 571 mmHg 78%
    01:00 -13°C° 0 mm 3 mps 571 mmHg 77%
    02:00 -13°C° 0 mm 3 mps 571 mmHg 77%
    03:00 -13°C° 0 mm 3 mps 571 mmHg 78%
    04:00 -12°C° 0 mm 3 mps 570 mmHg 78%
    05:00 -12°C° 0.1 mm 3 mps 570 mmHg 79%
    06:00 -10°C° 0.1 mm 2 mps 570 mmHg 79%
    07:00 -10°C° 0.1 mm 2 mps 570 mmHg 80%
    08:00 -9°C° 0.1 mm 2 mps 571 mmHg 80%
    09:00 -8°C° 0.1 mm 2 mps 572 mmHg 80%
    10:00 -7°C° 0.1 mm 2 mps 572 mmHg 81%
    11:00 -7°C° 0.2 mm 2 mps 572 mmHg 81%
    12:00 -6°C° 0.2 mm 2 mps 573 mmHg 81%
    13:00 -5°C° 0.2 mm 2 mps 573 mmHg 80%
    14:00 -6°C° 0.4 mm 2 mps 572 mmHg 84%
    15:00 -4°C° 0.4 mm 1 mps 572 mmHg 87%
    16:00 -6°C° 0.4 mm 1 mps 571 mmHg 90%
    17:00 -8°C° 0.1 mm 2 mps 570 mmHg 89%
    18:00 -9°C° 0.1 mm 2 mps 570 mmHg 89%
    19:00 -9°C° 0.1 mm 2 mps 569 mmHg 88%
    20:00 -10°C° 0.1 mm 2 mps 569 mmHg 88%
    21:00 -12°C° 0.1 mm 3 mps 568 mmHg 87%
    22:00 -12°C° 0.1 mm 3 mps 568 mmHg 86%
    23:00 -12°C° 0.1 mm 3 mps 567 mmHg 87%

    Tomorrow, 15 December, Friday

    Time Temperature Precipitation Wind Pressure Humidity
    00:00 -12°C° 0.1 mm 3 mps 567 mmHg 88%
    01:00 -12°C° 0.1 mm 3 mps 567 mmHg 89%
    02:00 -12°C° 0.3 mm 3 mps 567 mmHg 90%
    03:00 -10°C° 0.3 mm 3 mps 567 mmHg 91%
    04:00 -9°C° 0.3 mm 2 mps 567 mmHg 92%
    05:00 -9°C° 0.7 mm 2 mps 567 mmHg 92%
    06:00 -8°C° 0.7 mm 2 mps 568 mmHg 92%
    07:00 -8°C° 0.7 mm 2 mps 568 mmHg 92%
    08:00 -7°C° 0.1 mm 1 mps 568 mmHg 90%
    09:00 -7°C° 0.1 mm 1 mps 569 mmHg 87%
    10:00 -7°C° 0.1 mm 1 mps 569 mmHg 84%
    11:00 -6°C° 0 mm 1 mps 569 mmHg 78%
    12:00 -4°C° 0 mm 1 mps 569 mmHg 73%
    13:00 -3°C° 0 mm 1 mps 569 mmHg 67%
    14:00 -6°C° 0 mm 1 mps 568 mmHg 72%
    15:00 -7°C° 0 mm 1 mps 568 mmHg 77%
    16:00 -8°C° 0 mm 1 mps 567 mmHg 82%
    17:00 -9°C° 0.1 mm 1 mps 567 mmHg 82%
    18:00 -10°C° 0.1 mm 1 mps 567 mmHg 82%
    19:00 -13°C° 0.1 mm 2 mps 567 mmHg 82%
    20:00 -14°C° 0 mm 2 mps 567 mmHg 79%
    21:00 -14°C° 0 mm 2 mps 567 mmHg 76%
    22:00 -15°C° 0 mm 2 mps 567 mmHg 74%
    23:00 -15°C° 0 mm 2 mps 567 mmHg 73%

    Day after tomorrow, 16 December, Saturday

    Time Temperature Precipitation Wind Pressure Humidity
    00:00 -16°C° 0 mm 2 mps 567 mmHg 72%
    01:00 -16°C° 0 mm 2 mps 567 mmHg 71%
    02:00 -16°C° 0 mm 2 mps 567 mmHg 72%
    03:00 -16°C° 0 mm 2 mps 567 mmHg 74%
    04:00 -16°C° 0 mm 2 mps 568 mmHg 75%
    05:00 -16°C° 0 mm 2 mps 568 mmHg 76%
    06:00 -16°C° 0 mm 2 mps 568 mmHg 77%
    07:00 -16°C° 0 mm 2 mps 569 mmHg 79%
    08:00 -13°C° 0 mm 1 mps 570 mmHg 78%
    09:00 -11°C° 0 mm 1 mps 571 mmHg 77%
    10:00 -10°C° 0 mm 1 mps 572 mmHg 76%
    11:00 -9°C° 0 mm 1 mps 572 mmHg 74%
    12:00 -9°C° 0 mm 2 mps 573 mmHg 72%
    13:00 -8°C° 0 mm 2 mps 573 mmHg 70%
    14:00 -9°C° 0.1 mm 2 mps 573 mmHg 74%
    15:00 -10°C° 0.1 mm 2 mps 573 mmHg 78%
    16:00 -12°C° 0.1 mm 2 mps 573 mmHg 82%
    17:00 -12°C° 0.1 mm 2 mps 573 mmHg 83%
    18:00 -13°C° 0.1 mm 2 mps 573 mmHg 84%
    19:00 -14°C° 0.1 mm 2 mps 573 mmHg 86%
    20:00 -14°C° 0.1 mm 2 mps 574 mmHg 86%
    21:00 -14°C° 0.1 mm 2 mps 574 mmHg 86%
    22:00 -15°C° 0.1 mm 2 mps 574 mmHg 86%
    23:00 -15°C° 0 mm 2 mps 574 mmHg 85%

    17 December, Sunday

    Time Temperature Precipitation Wind Pressure Humidity
    00:00 -16°C° 0 mm 2 mps 574 mmHg 85%
    01:00 -16°C° 0 mm 2 mps 574 mmHg 85%
    02:00 -16°C° 0.1 mm 2 mps 574 mmHg 84%
    03:00 -16°C° 0.1 mm 2 mps 575 mmHg 84%
    04:00 -16°C° 0.1 mm 2 mps 575 mmHg 84%
    05:00 -16°C° 0.1 mm 2 mps 575 mmHg 84%
    06:00 -16°C° 0.1 mm 2 mps 576 mmHg 84%
    07:00 -15°C° 0.1 mm 2 mps 576 mmHg 84%
    08:00 -15°C° 0.1 mm 2 mps 577 mmHg 82%
    09:00 -14°C° 0.1 mm 2 mps 578 mmHg 81%
    10:00 -14°C° 0.1 mm 2 mps 579 mmHg 79%
    11:00 -13°C° 0.1 mm 2 mps 579 mmHg 76%
    12:00 -12°C° 0.1 mm 2 mps 579 mmHg 73%
    13:00 -12°C° 0.1 mm 2 mps 580 mmHg 69%
    14:00 -13°C° 0 mm 2 mps 579 mmHg 73%
    15:00 -14°C° 0 mm 2 mps 579 mmHg 76%
    16:00 -15°C° 0 mm 2 mps 579 mmHg 79%
    17:00 -16°C° 0 mm 2 mps 579 mmHg 80%
    18:00 -17°C° 0 mm 2 mps 579 mmHg 81%
    19:00 -17°C° 0 mm 2 mps 579 mmHg 82%
    20:00 -18°C° 0 mm 2 mps 579 mmHg 82%
    21:00 -18°C° 0 mm 2 mps 579 mmHg 81%
    22:00 -19°C° 0 mm 2 mps 579 mmHg 81%
    23:00 -19°C° 0 mm 2 mps 579 mmHg 80%

    18 December, Monday

    Time Temperature Precipitation Wind Pressure Humidity
    00:00 -19°C° 0 mm 2 mps 579 mmHg 80%
    01:00 -19°C° 0 mm 2 mps 579 mmHg 79%
    02:00 -19°C° 0 mm 2 mps 579 mmHg 78%
    03:00 -19°C° 0 mm 2 mps 580 mmHg 77%
    04:00 -20°C° 0 mm 2 mps 580 mmHg 75%
    05:00 -19°C° 0 mm 2 mps 580 mmHg 74%
    06:00 -19°C° 0 mm 2 mps 580 mmHg 73%
    07:00 -18°C° 0 mm 2 mps 580 mmHg 72%
    08:00 -17°C° 0 mm 2 mps 581 mmHg 72%
    09:00 -15°C° 0 mm 2 mps 582 mmHg 73%
    10:00 -14°C° 0 mm 2 mps 583 mmHg 73%
    11:00 -12°C° 0.1 mm 2 mps 583 mmHg 72%
    12:00 -9°C° 0.1 mm 1 mps 583 mmHg 71%
    13:00 -8°C° 0.1 mm 1 mps 583 mmHg 69%
    14:00 -8°C° 0.3 mm 1 mps 583 mmHg 73%
    15:00 -8°C° 0.3 mm 1 mps 582 mmHg 77%
    16:00 -9°C° 0.3 mm 1 mps 582 mmHg 80%
    17:00 -9°C° 0.7 mm 1 mps 582 mmHg 82%
    18:00 -9°C° 0.7 mm 1 mps 582 mmHg 85%
    19:00 -9°C° 0.7 mm 1 mps 581 mmHg 87%
    20:00 -9°C° 0.8 mm 1 mps 582 mmHg 88%
    21:00 -9°C° 0.8 mm 1 mps 582 mmHg 89%
    22:00 -8°C° 0.8 mm 1 mps 582 mmHg 90%
    23:00 -9°C° 0.4 mm 2 mps 582 mmHg 91%

    19 December, Tuesday

    Time Temperature Precipitation Wind Pressure Humidity
    00:00 -9°C° 0.4 mm 2 mps 583 mmHg 91%
    01:00 -9°C° 0.4 mm 2 mps 583 mmHg 91%
    02:00 -10°C° 0.1 mm 2 mps 583 mmHg 91%
    03:00 -12°C° 0.1 mm 2 mps 583 mmHg 90%
    04:00 -12°C° 0.1 mm 2 mps 582 mmHg 90%
    05:00 -13°C° 0 mm 2 mps 583 mmHg 89%
    06:00 -13°C° 0 mm 2 mps 583 mmHg 88%
    07:00 -13°C° 0 mm 2 mps 583 mmHg 87%
    08:00 -12°C° 0 mm 2 mps 584 mmHg 86%
    09:00 -10°C° 0 mm 2 mps 585 mmHg 84%
    10:00 -9°C° 0 mm 2 mps 586 mmHg 82%
    11:00 -8°C° 0 mm 2 mps 586 mmHg 80%
    12:00 -7°C° 0 mm 2 mps 587 mmHg 77%
    13:00 -6°C° 0 mm 2 mps 587 mmHg 75%
    14:00 -7°C° 0 mm 2 mps 587 mmHg 78%
    15:00 -7°C° 0 mm 2 mps 586 mmHg 81%
    16:00 -8°C° 0 mm 2 mps 586 mmHg 84%
    17:00 -9°C° 0 mm 2 mps 586 mmHg 84%
    18:00 -10°C° 0 mm 2 mps 586 mmHg 83%
    19:00 -12°C° 0 mm 2 mps 586 mmHg 83%
    20:00 -12°C° 0 mm 2 mps 586 mmHg 81%
    21:00 -12°C° 0 mm 2 mps 586 mmHg 79%
    22:00 -13°C° 0 mm 2 mps 586 mmHg 77%
    23:00 -12°C° 0 mm 2 mps 586 mmHg 75%
    Show more